Lid_Strength_Index
6 8 9 11 14 15 17 15 13 14 10 8 8 9 9 9 10 14 4 2 1 1 -0 -1 -2 -1 -2 -2 -1 -1 -1 -1 -1 -1 -0 -0 -0 -0 -0 -0 -0 -1 -1 -1 -1 -1 -1 -1 -1
6 7 12 14 17 19 18 15 15 11 9 8 9 9 10 10 6 5 4 2 1 1 0 0 -1 -1 -1 -1 -0 -0 -0 -0 0 0 0 0 1 1 1 1 1 1 0 -1 -2 -1 -1 -1 -1
7 9 13 16 19 19 18 16 14 11 10 10 8 9 10 9 6 4 3 1 1 2 1 0 -1 -1 -1 -0 0 0 0 0 1 1 1 1 1 2 2 2 1 1 1 1 0 -1 -1 -1 -1
9 12 14 16 19 16 16 14 14 12 10 9 10 11 8 6 4 3 1 2 3 3 1 -0 -1 -1 -0 0 0 0 1 1 1 1 2 2 2 2 2 2 2 2 1 0 0 -0 -1 -1 -1
11 14 17 18 17 16 15 14 13 14 12 9 10 11 10 4 3 1 2 2 3 3 2 1 -1 -0 0 1 1 1 1 1 2 2 3 3 3 3 3 2 2 1 1 1 1 0 -0 -1 -1
13 15 18 19 18 15 15 13 14 14 14 10 10 11 10 4 4 4 3 4 3 3 2 2 1 0 0 1 1 1 2 2 3 3 3 3 3 3 3 3 3 2 2 1 1 1 1 0 -0
14 17 19 19 18 16 14 13 12 12 12 11 10 12 9 5 4 4 4 4 3 3 3 4 3 2 1 1 1 1 2 3 3 3 3 3 3 3 3 4 3 2 2 1 1 1 1 1 1
13 15 18 17 17 17 14 14 13 12 14 11 9 11 11 6 4 4 5 5 5 4 4 5 5 5 5 4 2 2 2 4 4 4 4 4 5 4 4 3 2 2 2 2 1 1 1 0 0
13 17 18 17 17 16 15 15 14 13 12 12 11 11 8 5 4 6 6 6 6 5 6 6 6 6 7 6 5 3 3 3 4 4 4 6 7 7 6 4 3 2 2 2 2 1 1 1 0
15 17 16 16 16 16 15 16 15 14 15 15 14 8 6 5 5 6 7 7 7 7 7 6 7 7 8 6 7 8 7 7 7 7 8 7 8 7 5 6 4 3 3 3 2 1 1 2 3
15 16 17 15 15 15 15 16 15 14 15 14 14 11 6 6 6 6 6 6 6 6 7 7 7 7 8 8 9 8 8 8 8 8 8 8 8 8 8 8 8 7 5 6 5 5 4 4 4
15 13 14 13 14 15 15 15 15 14 13 13 13 8 7 6 6 6 6 7 7 7 7 7 7 7 8 8 8 8 8 9 9 9 8 9 8 8 8 8 8 8 7 6 5 5 4 4 3
14 14 13 13 14 14 14 14 15 14 13 13 12 10 7 7 6 6 5 6 6 7 7 7 8 8 8 8 8 8 9 9 9 9 8 8 8 9 9 8 8 8 6 5 5 4 4 4 3
13 13 13 13 14 15 15 16 15 14 15 14 13 13 11 7 6 7 6 5 6 6 6 7 8 8 8 8 8 9 10 10 9 9 8 8 8 9 9 8 8 8 5 5 5 4 4 3 3
13 15 15 15 15 15 15 17 16 13 13 14 14 13 12 11 7 7 6 6 5 5 6 7 8 8 8 8 8 9 9 9 9 8 8 8 8 8 8 8 7 7 5 5 4 4 3 3 2
16 15 17 15 15 15 16 18 16 14 16 14 14 15 14 13 11 8 7 6 5 6 7 7 7 8 8 8 9 10 10 10 9 8 8 8 7 7 8 7 7 6 5 5 4 3 4 2 2
16 20 18 16 14 15 16 17 16 15 16 15 15 14 14 13 13 12 10 7 6 6 7 8 8 9 9 10 10 10 10 9 9 8 8 7 7 6 7 7 6 5 4 3 2 2 2 2 2
18 18 18 18 15 15 17 16 15 14 15 14 14 15 15 14 14 12 8 6 7 7 7 8 9 9 10 10 11 11 10 9 9 8 8 7 6 6 6 6 7 6 4 3 2 2 2 2 2
18 18 18 18 15 16 16 16 15 15 16 16 16 15 15 15 12 9 8 8 8 8 8 9 10 10 11 12 12 12 11 10 9 8 7 7 6 6 6 6 7 7 6 4 2 2 2 1 2
16 18 18 16 15 17 17 16 14 15 15 15 15 15 14 12 10 9 10 9 9 9 9 9 10 11 11 11 12 12 11 11 9 8 8 7 6 6 6 7 7 7 6 4 2 3 2 2 1
17 17 17 18 16 17 17 17 16 15 15 15 15 14 13 11 10 10 10 10 10 9 9 9 10 11 11 12 11 11 10 11 10 9 8 8 7 6 6 7 7 6 5 4 3 2 2 3 2
18 15 15 16 18 20 18 21 17 17 16 15 16 15 13 12 11 10 10 10 10 10 10 10 11 11 12 11 12 11 12 12 11 9 9 8 7 7 6 7 6 5 5 4 3 2 3 3 4
16 14 15 16 18 19 19 20 17 17 16 15 15 15 15 13 11 10 10 9 10 10 10 11 12 12 12 12 11 12 12 11 11 10 9 9 8 7 7 7 7 6 5 4 3 2 3 4 4
13 14 15 17 17 23 19 19 19 17 16 15 15 15 14 13 12 11 10 10 11 11 11 12 13 13 13 13 12 12 12 11 11 11 10 10 9 8 8 7 7 6 5 4 3 3 4 5 4
15 17 23 23 25 23 19 20 19 16 15 15 14 14 14 13 12 12 11 11 12 12 12 13 13 13 13 13 12 12 12 11 11 11 11 10 10 9 8 8 8 6 5 4 3 2 5 5 4
17 17 20 23 24 22 19 20 18 16 15 15 14 14 14 13 12 12 11 11 12 12 13 13 13 13 13 12 12 12 11 11 11 11 11 10 10 9 8 8 8 5 4 4 3 3 4 5 4
15 18 16 20 25 22 20 18 15 16 16 16 15 14 14 13 13 12 11 11 12 12 13 13 13 13 13 13 12 12 12 12 11 11 11 11 10 8 8 8 8 5 4 4 4 4 5 4 4
16 14 19 20 25 24 22 20 18 17 16 16 15 14 14 14 13 12 12 12 12 12 13 13 13 13 13 13 12 12 12 11 11 11 11 11 10 9 8 8 8 6 5 4 4 5 6 5 4
17 17 17 16 18 21 24 20 16 15 15 16 15 14 15 14 14 13 12 12 12 12 13 13 13 13 14 13 12 12 12 11 11 11 11 10 9 8 8 8 8 7 5 5 5 6 6 6 5
16 16 16 18 21 20 20 18 15 14 15 14 14 13 14 14 14 14 13 13 13 13 13 13 13 13 14 13 12 12 12 11 11 11 11 10 10 8 8 8 8 7 5 4 4 6 6 6 7